Overview Statistics Trail Chart Weather Telemetry Raw packets
 

This is the latest recevied weather packets stored in our database for station/object DO1BDB-12. If no packets are shown the sender has not sent any weather packets the latest 10 day(s).

<< 309 310 311 312 313 314 315 >>
Time Temp. Humidity Pressure Rain* Wind** Luminosity Snow
1788180418 23.33° C 65% 100.8 hPa - - - -
1788180352 23.33° C 65% 100.8 hPa - - - -
1788180287 22.78° C 67% 100.8 hPa - - - -
1788180220 22.78° C 66% 100.8 hPa - - - -
1788180154 22.78° C 67% 100.8 hPa - - - -
1788180088 22.78° C 66% 100.8 hPa - - - -
1788180023 22.78° C 65% 100.8 hPa - - - -
1788179957 22.78° C 64% 100.8 hPa - - - -
1788179891 22.22° C 65% 100.8 hPa - - - -
1788179825 22.22° C 64% 100.8 hPa - - - -
1788179759 22.22° C 62% 100.8 hPa - - - -
1788179693 22.22° C 63% 100.8 hPa - - - -
1788179628 22.78° C 63% 100.8 hPa - - - -
1788179562 22.78° C 61% 100.8 hPa - - - -
1788179496 22.78° C 60% 100.8 hPa - - - -
1788179430 22.78° C 57% 100.8 hPa - - - -
1788179364 23.33° C 57% 100.8 hPa - - - -
1788179298 23.33° C 55% 100.8 hPa - - - -
1788179233 23.33° C 55% 100.8 hPa - - - -
1788179167 23.33° C 54% 100.8 hPa - - - -
1788179101 23.33° C 55% 100.8 hPa - - - -
1788179035 23.89° C 55% 100.8 hPa - - - -
1788178969 23.89° C 54% 100.8 hPa - - - -
1788178903 23.89° C 55% 100.8 hPa - - - -
1788178837 24.44° C 54% 100.8 hPa - - - -

* Rain since midnight (hover to see other rain measurements)
** Current wind speed in m/s (hover to see current wind gust speed)